| time (UTC) | temp F | wind direction | speed MPH | gust MPH | rain 1hr in | rain 24hr in | rain mn in | humidity % | barometer mb |
| 20260831074527 | 61 | 238 | 3.0 | 10.0 | 0.00 | 0.03 | 0.00 | 90 | 1010.3 |
| 20260831073026 | 61 | 247 | 3.0 | 8.0 | 0.00 | 0.03 | 0.00 | 90 | 1010.4 |
| 20260831071524 | 61 | 248 | 3.0 | 9.0 | 0.00 | 0.03 | 0.00 | 89 | 1010.4 |
| 20260831070026 | 61 | 229 | 3.0 | 9.0 | 0.00 | 0.03 | 0.00 | 89 | 1010.0 |
| 20260831064522 | 61 | 245 | 4.0 | 9.0 | 0.00 | 0.03 | 0.00 | 90 | 1009.9 |
| 20260831063020 | 61 | 233 | 4.0 | 11.0 | 0.00 | 0.03 | 0.00 | 89 | 1009.8 |
| 20260831061519 | 61 | 223 | 4.0 | 12.0 | 0.00 | 0.03 | 0.00 | 91 | 1009.7 |
| 20260831060017 | 61 | 257 | 4.0 | 11.0 | 0.00 | 0.03 | 0.00 | 91 | 1009.4 |
| 20260831054516 | 61 | 243 | 5.0 | 13.0 | 0.00 | 0.03 | 0.00 | 91 | 1009.3 |
| 20260831053014 | 61 | 248 | 4.0 | 9.0 | 0.00 | 0.03 | 0.00 | 92 | 1009.4 |
| 20260831051512 | 61 | 234 | 4.0 | 11.0 | 0.00 | 0.03 | 0.00 | 91 | 1009.4 |
| 20260831050009 | 62 | 234 | 4.0 | 11.0 | 0.00 | 0.03 | 0.00 | 89 | 1009.0 |
| 20260831044507 | 62 | 240 | 5.0 | 11.0 | 0.00 | 0.03 | 0.00 | 89 | 1009.1 |
| 20260831043003 | 62 | 257 | 4.0 | 11.0 | 0.00 | 0.03 | 0.00 | 89 | 1008.9 |
| 20260831041502 | 62 | 249 | 4.0 | 14.0 | 0.00 | 0.03 | 0.00 | 89 | 1008.9 |
| 20260831040058 | 62 | 220 | 6.0 | 12.0 | 0.00 | 0.03 | 0.00 | 89 | 1008.6 |
| 20260831034555 | 62 | 240 | 5.0 | 9.0 | 0.00 | 0.03 | 0.00 | 89 | 1008.4 |
| 20260831033053 | 62 | 263 | 4.0 | 13.0 | 0.00 | 0.03 | 0.00 | 89 | 1008.2 |
| 20260831031552 | 62 | 219 | 3.0 | 17.0 | 0.00 | 0.03 | 0.00 | 89 | 1008.0 |
| 20260831030055 | 62 | 243 | 3.0 | 16.0 | 0.00 | 0.03 | 0.00 | 89 | 1008.0 |
| 20260831024607 | 62 | 236 | 6.0 | 14.0 | 0.00 | 0.03 | 0.00 | 89 | 1007.8 |
| 20260831023046 | 62 | 221 | 5.0 | 16.0 | 0.00 | 0.03 | 0.00 | 89 | 1007.7 |
| 20260831021551 | 62 | 236 | 5.0 | 16.0 | 0.00 | 0.03 | 0.00 | 89 | 1007.5 |
| 20260831020044 | 63 | 243 | 5.0 | 15.0 | 0.00 | 0.03 | 0.00 | 89 | 1007.3 |
| 20260831014541 | 63 | 251 | 6.0 | 13.0 | 0.00 | 0.03 | 0.00 | 89 | 1007.2 |
| 20260831013040 | 63 | 219 | 5.0 | 15.0 | 0.00 | 0.03 | 0.00 | 89 | 1007.1 |
| 20260831011550 | 63 | 171 | 5.0 | 11.0 | 0.00 | 0.03 | 0.00 | 88 | 1007.0 |
| 20260831003037 | 63 | 228 | 7.0 | 14.0 | 0.00 | 0.03 | 0.00 | 86 | 1006.7 |
| 20260830234523 | 64 | 203 | 4.0 | 7.0 | 0.00 | 0.03 | 0.00 | 89 | 1006.5 |
| 20260830233024 | 64 | 201 | 4.0 | 8.0 | 0.00 | 0.03 | 0.00 | 89 | 1006.4 |
| 20260830231520 | 64 | 205 | 3.0 | 8.0 | 0.00 | 0.03 | 0.00 | 89 | 1006.3 |
| 20260830230019 | 63 | 221 | 4.0 | 10.0 | 0.00 | 0.03 | 0.00 | 89 | 1006.2 |
| 20260830224522 | 63 | 191 | 4.0 | 11.0 | 0.00 | 0.03 | 0.00 | 89 | 1006.1 |
| 20260830223016 | 63 | 180 | 5.0 | 11.0 | 0.00 | 0.03 | 0.00 | 89 | 1006.2 |
| 20260830221515 | 63 | 223 | 4.0 | 16.0 | 0.00 | 0.03 | 0.00 | 89 | 1006.1 |
| 20260830220015 | 64 | 202 | 6.0 | 14.0 | 0.00 | 0.03 | 0.03 | 89 | 1006.1 |
| 20260830214612 | 64 | 198 | 6.0 | 18.0 | 0.00 | 0.03 | 0.03 | 89 | 1006.2 |
| 20260830213010 | 64 | 178 | 7.0 | 20.0 | 0.00 | 0.03 | 0.03 | 89 | 1006.2 |
| 20260830211510 | 64 | 202 | 5.0 | 15.0 | 0.00 | 0.03 | 0.03 | 89 | 1006.2 |
| 20260830210008 | 63 | 184 | 7.0 | 18.0 | 0.00 | 0.03 | 0.03 | 89 | 1006.2 |
| 20260830204506 | 63 | 169 | 9.0 | 23.0 | 0.00 | 0.03 | 0.03 | 89 | 1006.3 |
| 20260830203004 | 63 | 211 | 8.0 | 23.0 | 0.00 | 0.03 | 0.03 | 89 | 1006.4 |
| 20260830201506 | 63 | 223 | 6.0 | 16.0 | 0.00 | 0.03 | 0.03 | 89 | 1006.5 |
| 20260830200003 | 63 | 167 | 8.0 | 15.0 | 0.00 | 0.03 | 0.03 | 89 | 1006.5 |
| 20260830194502 | 63 | 163 | 6.0 | 17.0 | 0.00 | 0.03 | 0.03 | 89 | 1006.5 |
| 20260830193105 | 63 | 198 | 6.0 | 14.0 | 0.00 | 0.03 | 0.03 | 89 | 1006.5 |
| 20260830191559 | 63 | 207 | 6.0 | 14.0 | 0.00 | 0.03 | 0.03 | 89 | 1006.6 |
| 20260830190055 | 63 | 195 | 6.0 | 15.0 | 0.00 | 0.03 | 0.03 | 88 | 1006.6 |
| 20260830184605 | 63 | 193 | 6.0 | 13.0 | 0.02 | 0.03 | 0.03 | 88 | 1006.9 |
| 20260830183100 | 63 | 210 | 4.0 | 15.0 | 0.03 | 0.03 | 0.03 | 88 | 1007.0 |
| 20260830181551 | 63 | 190 | 5.0 | 13.0 | 0.03 | 0.03 | 0.03 | 88 | 1007.1 |
| 20260830180049 | 63 | 167 | 5.0 | 13.0 | 0.03 | 0.03 | 0.03 | 89 | 1007.0 |
| 20260830174547 | 63 | 163 | 3.0 | 12.0 | 0.02 | 0.02 | 0.02 | 91 | 1007.2 |
| 20260830173046 | 64 | 155 | 6.0 | 14.0 | 0.00 | 0.00 | 0.00 | 93 | 1007.3 |
| 20260830171551 | 64 | 192 | 6.0 | 15.0 | 0.00 | 0.00 | 0.00 | 92 | 1007.3 |
| 20260830170044 | 64 | 197 | 7.0 | 16.0 | 0.00 | 0.00 | 0.00 | 92 | 1007.3 |
| 20260830164545 | 64 | 153 | 4.0 | 14.0 | 0.00 | 0.00 | 0.00 | 93 | 1007.3 |
| 20260830163047 | 64 | 166 | 6.0 | 17.0 | 0.00 | 0.00 | 0.00 | 93 | 1007.5 |
| 20260830161544 | 64 | 184 | 5.0 | 15.0 | 0.00 | 0.00 | 0.00 | 94 | 1007.5 |
| 20260830160040 | 65 | 198 | 4.0 | 14.0 | 0.00 | 0.00 | 0.00 | 94 | 1007.6 |
| 20260830154539 | 65 | 214 | 5.0 | 11.0 | 0.00 | 0.00 | 0.00 | 93 | 1007.7 |
| 20260830153037 | 65 | 177 | 4.0 | 14.0 | 0.00 | 0.00 | 0.00 | 92 | 1007.8 |
| 20260830151543 | 66 | 176 | 5.0 | 15.0 | 0.00 | 0.00 | 0.00 | 92 | 1008.0 |
| 20260830150038 | 66 | 193 | 6.0 | 18.0 | 0.00 | 0.00 | 0.00 | 92 | 1008.0 |
| 20260830144543 | 66 | 178 | 9.0 | 18.0 | 0.00 | 0.00 | 0.00 | 92 | 1008.0 |
| 20260830143037 | 66 | 224 | 5.0 | 16.0 | 0.00 | 0.00 | 0.00 | 92 | 1008.1 |
| 20260830141537 | 66 | 206 | 9.0 | 18.0 | 0.00 | 0.00 | 0.00 | 92 | 1008.1 |
| 20260830140032 | 66 | 200 | 7.0 | 16.0 | 0.00 | 0.00 | 0.00 | 92 | 1008.2 |
| 20260830134538 | 66 | 191 | 7.0 | 15.0 | 0.00 | 0.00 | 0.00 | 93 | 1008.3 |
| 20260830133031 | 65 | 200 | 4.0 | 12.0 | 0.00 | 0.00 | 0.00 | 93 | 1008.3 |
| 20260830131532 | 66 | 192 | 6.0 | 16.0 | 0.00 | 0.00 | 0.00 | 92 | 1008.4 |
| 20260830130028 | 67 | 183 | 5.0 | 20.0 | 0.00 | 0.00 | 0.00 | 90 | 1008.2 |
| 20260830124527 | 67 | 202 | 7.0 | 18.0 | 0.00 | 0.00 | 0.00 | 89 | 1008.3 |
| 20260830123027 | 67 | 147 | 6.0 | 18.0 | 0.00 | 0.00 | 0.00 | 89 | 1008.5 |
| 20260830121525 | 67 | 178 | 7.0 | 16.0 | 0.00 | 0.00 | 0.00 | 89 | 1008.5 |
| 20260830120024 | 67 | 182 | 5.0 | 19.0 | 0.00 | 0.00 | 0.00 | 88 | 1008.4 |
| 20260830114524 | 68 | 164 | 6.0 | 16.0 | 0.00 | 0.00 | 0.00 | 85 | 1008.6 |
| 20260830113023 | 69 | 188 | 6.0 | 14.0 | 0.00 | 0.00 | 0.00 | 83 | 1008.5 |
| 20260830111522 | 70 | 185 | 5.0 | 13.0 | 0.00 | 0.00 | 0.00 | 81 | 1008.6 |
| 20260830110021 | 70 | 196 | 4.0 | 12.0 | 0.00 | 0.06 | 0.00 | 78 | 1008.7 |
| 20260830104520 | 70 | 195 | 4.0 | 14.0 | 0.00 | 0.06 | 0.00 | 79 | 1008.7 |
| 20260830103023 | 69 | 193 | 3.0 | 13.0 | 0.00 | 0.06 | 0.00 | 81 | 1008.9 |
| 20260830101514 | 69 | 154 | 6.0 | 11.0 | 0.00 | 0.06 | 0.00 | 83 | 1009.0 |
| 20260830100011 | 68 | 204 | 3.0 | 11.0 | 0.00 | 0.19 | 0.00 | 85 | 1009.1 |
| 20260830094511 | 68 | 205 | 4.0 | 14.0 | 0.00 | 0.19 | 0.00 | 86 | 1009.3 |
| 20260830093019 | 68 | 360 | 6.0 | 11.0 | 0.00 | 0.19 | 0.00 | 87 | 1009.5 |
| 20260830091511 | 68 | 201 | 4.0 | 12.0 | 0.00 | 0.19 | 0.00 | 87 | 1009.5 |
| 20260830090008 | 68 | 201 | 3.0 | 12.0 | 0.00 | 0.45 | 0.00 | 87 | 1009.4 |
| 20260830084524 | 67 | 161 | 4.0 | 14.0 | 0.00 | 0.45 | 0.00 | 89 | 1009.5 |
| 20260830083007 | 67 | 221 | 5.0 | 10.0 | 0.00 | 0.45 | 0.00 | 88 | 1009.8 |
| 20260830081503 | 66 | 194 | 4.0 | 11.0 | 0.00 | 0.45 | 0.00 | 89 | 1009.8 |
| 20260830080002 | 66 | 196 | 5.0 | 12.0 | 0.00 | 0.54 | 0.00 | 89 | 1009.8 |